Content
SEND FEEDBACK

Daily
Averages
Monthly
Summary
Philippines

QUEZON CITY, PHILIPPINES


Home > Asia > Philippines
Elevation: 46 meters     Latitude: 14 39N     Longitude: 121 03E

WEATHER
 
SELECT A DAY
Number of Records: 172,358;   Date Range: 7/1/96 - 7/20/14
 
SHARE

PRINT THIS DATA

[ ← Previous Day ]
WEATHER ALMANAC - 1 MARCH, 2013
[ Next Day → ]
[ °F ]   °C
Weather ElementAverageHighLow
Temperature28.3 °C32.2 °C (2:00 pm)23 °C (6:00 am)
Dewpoint20.5 °C22.2 °C (2:00 am)17 °C (4:00 pm)
Humidity62.4 %94 % (6:00 am)34 % (2:00 pm)
Barometer1012.2 hPa1015.2 hPa (10:00 am)1010.2 hPa (3:00 pm)
Wind Speed13.7 km/h22.2 km/h (3:00 pm)
Weather ElementAverage
Visibility9.8 km
Wind DirectionESE (122.9 °)

Weather ElementTotal
Precipitation---
Cooling Degree Days9.3 (Base 18.3)
Growing Degree Days17.6 (Base 10)
Averaged from 31 records on 1 March, 2013
WEATHER CONDITIONS BREAKOUT
WIND DIRECTION BREAKOUT
WEATHER BY HOUR - 1 MARCH, 2013
[ °F ]   °C
Local TimeTemperatureDewpointHumidityBarometerVisibilityWind DirectionWind SpeedGust SpeedPrecipitationEventsConditions
1:00 AM26 °C22 °C78 %1012.2 hPaSE (130°)11.1 km/hClear
2:00 AM26.1 °C22.2 °C73 %1011.5 hPa9.7 kmESE (110°)10.8 km/hClear
2:00 AM26 °C22 °C78 %1011.2 hPaESE (110°)9.3 km/hClear
3:00 AM26 °C22 °C78 %1011.2 hPaESE (110°)11.1 km/hClear
4:00 AM25 °C22 °C83 %1011.2 hPaEast (90°)11.1 km/hClear
5:00 AM25 °C22.2 °C81 %1011.9 hPa9.7 kmEast (100°)7.2 km/hClear
5:00 AM25 °C22 °C83 %1011.2 hPaEast (100°)5.6 km/hClear
6:00 AM23 °C22 °C94 %1012.2 hPa10 kmENE (70°)5.6 km/hPartly Cloudy
7:00 AM26 °C22 °C78 %1013.2 hPa10 kmEast (90°)9.3 km/hPartly Cloudy
8:00 AM27.8 °C21.7 °C61 %1014.2 hPa9.7 kmSE (130°)14.3 km/hHaze
8:00 AM28 °C22 °C70 %1014.2 hPa10 kmSE (130°)13 km/hPartly Cloudy
9:00 AM28 °C21 °C66 %1014.2 hPa10 kmESE (110°)16.7 km/hPartly Cloudy
10:00 AM29 °C21 °C62 %1015.2 hPa10 kmESE (120°)16.7 km/hPartly Cloudy
11:00 AM30.6 °C20.6 °C45 %1013.9 hPa9.7 kmESE (120°)7.2 km/hHaze
11:00 AM30 °C20 °C55 %1014.2 hPa10 kmESE (120°)16.7 km/hPartly Cloudy
12:00 PM31 °C20 °C52 %1013.2 hPa10 kmSE (140°)18.5 km/hPartly Cloudy
1:00 PM32 °C20 °C49 %1012.2 hPa10 kmSE (130°)18.5 km/hPartly Cloudy
2:00 PM32.2 °C18.3 °C34 %1011.9 hPa9.7 kmSE (140°)18 km/hScattered Clouds
2:00 PM32 °C19 °C46 %1011.2 hPa10 kmSE (140°)20.4 km/hPartly Cloudy
3:00 PM32 °C18 °C43 %1010.2 hPa10 kmSE (140°)22.2 km/hPartly Cloudy
4:00 PM32 °C17 °C40 %1010.2 hPa10 kmSSE (150°)14.8 km/hPartly Cloudy
5:00 PM31.1 °C17.8 °C35 %1010.8 hPa9.7 kmSE (140°)18 km/hScattered Clouds
5:00 PM31 °C18 °C46 %1010.2 hPa10 kmSE (140°)18.5 km/hPartly Cloudy
6:00 PM30 °C19 °C51 %1010.2 hPa10 kmSE (130°)18.5 km/hPartly Cloudy
7:00 PM28 °C20 °C62 %1011.2 hPa10 kmSE (130°)18.5 km/hPartly Cloudy
8:00 PM27.8 °C20.6 °C56 %1012.2 hPa9.7 kmSE (140°)10.8 km/hClear
8:00 PM28 °C20 °C62 %1012.2 hPaSE (140°)11.1 km/hClear
9:00 PM27 °C21 °C70 %1013.2 hPaESE (120°)14.8 km/hClear
10:00 PM27 °C21 °C70 %1013.2 hPaSE (130°)11.1 km/hClear
11:00 PM26.7 °C20.6 °C62 %1013.9 hPa9.7 kmSE (130°)10.8 km/hScattered Clouds
11:00 PM27 °C21 °C70 %1014.2 hPa10 kmSE (130°)11.1 km/hPartly Cloudy
Hourly data recorded from RPLL, located 0 kilometers away from Quezon City, Philippines







STORIES FROM OUR PARTNERS